Regional Weather Roundup
Issued by NWS

Home | Current Version | Previous Version | Graphics & Text | Print | Product List | Glossary On
Versions: 1 2 3 4 5 6 7 8 9 10 11 12 13 14 15 16 17 18 19 20 21 22 23 24 25 26 27
000
ASUS45 KTFX 240010
RWRMT
MONTANA REGIONAL WEATHER ROUNDUP
NATIONAL WEATHER SERVICE GREAT FALLS MT
500 PM MST THU NOV 23 2017

NOTE: "FAIR" INDICATES FEW OR NO CLOUDS BELOW 12000 FEET WITH NO
SIGNIFICANT WEATHER AND/OR OBSTRUCTIONS TO VISIBILITY.

MTZ001>007-043-240100-
WEST OF THE DIVIDE

CITY           SKY/WX    TMP DP  RH WIND       PRES   REMARKS
KALISPELL      LGT RAIN  52  47  83 SW12      29.56F
MISSOULA       LGT RAIN  50  48  93 E9        29.70F
BUTTE          FAIR      55  30  38 SW17G28   29.79F
MULLAN PASS    LGT RAIN  41  37  86 W15G38    29.68S
ANACONDA         N/A     55  34  44 S18G26    29.75F
DEER LODGE       N/A     55  36  47 S13G20    29.71F
EUREKA           N/A     52  43  71 MISG      29.55R
HAMILTON         N/A     59  39  47 SW10G20   29.71S
LIBBY            N/A     48  48 100 CALM      29.56R
PLAINS           N/A     58  44  59 S16       29.65F
RONAN            N/A     53  46  77 SE9       29.71F
$$

MTZ008-052>055-240100-
SOUTHWEST MONTANA

CITY           SKY/WX    TMP DP  RH WIND       PRES   REMARKS
BOZEMAN        FAIR      56  35  45 SW14      29.75F
DILLON         FAIR      57  29  34 SW22      29.84F
W YELLOWSTONE  CLOUDY    43  39  87 CALM      30.00F
ENNIS          CLEAR     52  36  54 S18G29    29.92F
TWIN BRIDGES     N/A     56  30  37 CALM      29.85F
$$

MTZ009-010-012-014-046-048-049-054-240100-
EAST SLOPES AND CENTRAL MONTANA

CITY           SKY/WX    TMP DP  RH WIND       PRES   REMARKS
CUT BANK       LGT RAIN  51  42  71 SW22G41   29.48F
GREAT FALLS    FAIR      55  39  54 W29G43    29.57F
MALMSTROM AFB  FAIR      58  40  50 W28G43    29.58F
HELENA         FAIR      63  34  33 SW12      29.65F
BOWMANS CRNR   LGT RAIN  47  42  84 SW25G31   29.62F
CHOTEAU          N/A     52  39  62 SW13G18   29.58F
FAIRFIELD      FAIR      52  40  64 SW21G29   29.57F
POWER          FAIR      52  40  64 SW23      29.57F
RAYNESFORD     FAIR      60  33  35 W16       29.58F
ULM            FAIR      57  39  51 W22G28    29.61S
$$

MTZ011-013-016-021-045-047-050-051-240100-
NORTH CENTRAL MONTANA

CITY           SKY/WX    TMP DP  RH WIND       PRES   REMARKS
HAVRE          FAIR      60  40  47 SW18      29.46F
LEWISTOWN      FAIR      60  32  34 W22G31    29.60F
N BAR RANCH    FAIR      59  30  33 SW9G17    29.65F
CHINOOK          N/A     63  39  42 SW10      29.46S
DENTON         FAIR      60  35  38 W22G31    29.53F
GEYSER         FAIR      54  33  45 SW8       29.58F
GRASS RANGE    FAIR      64  30  28 W30G39    29.55F
STANFORD       FAIR      59  31  34 W16G26    29.61F
WINIFRED       FAIR      60  36  41 W15G22    29.54F
$$

MTZ017>020-022>027-061-062-240100-
NORTHEAST MONTANA

CITY           SKY/WX    TMP DP  RH WIND       PRES   REMARKS
GLASGOW        FAIR      65  36  34 W16G26    29.46F
GLENDIVE       FAIR      57  37  47 SW12      29.53F
JORDAN           N/A     65  35  33 SW17      29.52F
SIDNEY         FAIR      52  35  52 S12       29.49R
WOLF POINT     FAIR      55  35  47 SW7       29.46F
MALTA          PTCLDY    63  37  39 W13G24    29.46F
PLENTYWOOD       N/A     59  37  44 CALM      29.42S
POPLAR           N/A     63  36  36 SW8       29.46F
SCOBEY           N/A     63  37  37 W28       29.43F
$$

MTZ028>42-056>058-240100-
SOUTHCENTRAL AND SOUTHEAST MONTANA

CITY           SKY/WX    TMP DP  RH WIND       PRES   REMARKS
BAKER          FAIR      59  38  45 SW15      29.60F
BILLINGS       FAIR      63  36  36 SW12      29.68F
LIVINGSTON     FAIR      59  36  42 SW40G51   29.71F
MILES CITY     FAIR      61  39  44 SW12      29.58F
BIG TIMBER     PTCLDY    57  34  41 W16       29.74F
EKALAKA          N/A     60  34  37 SE5       29.67
FORSYTH          N/A     66  37  34 SW10      29.61F
HARLOWTON      FAIR      60  32  35 W21G29    29.67F
LAUREL           N/A     63  32  31 SW16G25   29.69F
ROUNDUP          N/A     64  33  31 SW13      29.59F
$$

REGIONAL REPORTS...DAKOTAS

CITY           SKY/WX    TMP DP  RH WIND       PRES   REMARKS
WILLISTON      FAIR      56  37  49 SW12      29.45F
MINOT          FAIR      53  38  56 SW12      29.39F
DICKINSON      FAIR      59  36  42 W14       29.54F
BEACH          FAIR      57  36  44 SW12G17   29.59F
CROSBY         FAIR      54  37  54 SW16      29.39F
TIOGA          FAIR      57  36  44 SW18G25   29.44F
WATFORD CITY   FAIR      54  37  54 SW9       29.48S
BISMARCK       FAIR      59  38  45 SW5       29.52F
GRAND FORKS    MOCLDY    38  32  79 S15       29.46F WCI  29
FARGO          FAIR      44  31  60 S16       29.54F
RAPID CITY     FAIR      63  32  31 W13       29.71F
$$

REGIONAL REPORTS...WYOMING/IDAHO/WASHINGTON

CITY           SKY/WX    TMP DP  RH WIND       PRES   REMARKS
GILLETTE       FAIR      60  34  37 SW21      29.77F
SHERIDAN       FAIR      60  34  37 W9        29.75F
BUFFALO WY     FAIR      59  28  30 CALM      29.80F
CODY           FAIR      60  31  33 W14G25    29.86R
YELLOWSTONE LA   N/A     41  34  76 W8G21     30.08S
IDAHO FALLS    FAIR      55  43  63 SW16      30.01S
SALMON         FAIR      53  38  56 W5        29.84F
BOISE          MOCLDY    62  44  51 SE13      29.92F
SPOKANE        CLOUDY    52  49  89 SW21      29.68R
$$

REGIONAL REPORTS...ALBERTA

CITY           SKY/WX    TMP DP  RH WIND       PRES   REMARKS
EDMONTON       CLEAR     37  30  75 W8        29.28R WCI  31
CALGARY        CLOUDY    36  32  87 S7        29.43F WCI  30
LETHBRIDGE     MOCLDY    52  39  62 W20G28    29.39F
MEDICINE HAT   MOCLDY    45  36  70 NE10      29.40F
$$

REGIONAL REPORTS...SASKATCHEWAN

CITY           SKY/WX    TMP DP  RH WIND       PRES   REMARKS
SWIFT CURRENT  PTCLDY    37  34  87 W8        29.41R WCI  31
REGINA         PTCLDY    45  37  76 W17G28    29.32R
SASKATOON      PTCLDY    30  27  86 W9        29.30F WCI  22
$$




USA.gov is the U.S. government's official web portal to all federal, state and local government web resources and services.